Location: Gibsondale
(40.9931°N, 80.2478°W)
Time: 08:13:41
(UTC+00:00)

NOSS 3-3 (A) - Pass Details

Date: 29 October 2020
Orbit: 826 x 1387 km, 63.4° (Epoch: 22 November)

Event Time Altitude Azimuth Distance (km) Brightness Sun altitude
Rises 23:23:32 0° 208° (SSW) 3,377 7.4 -12.6°
Reaches altitude 10° 23:25:53 10° 206° (SSW) 2,477 6.6 -13.0°
Maximum altitude 23:31:34 77° 122° (ESE) 939 3.8 -14.1°
Drops below altitude 10° 23:37:58 10° 37° (NE) 2,778 6.0 -15.3°
Enters shadow 23:38:34 - 37° (NE) 3,002 6.2 -15.4°
